[[{"header":{"parameterUnit":"m.s-1","parameterCategory":1,"la1":30.2991,"la2":30.254,"lo1":-89.0895,"lo2":-89.0444,"dy":0.0017,"dx":0.0017,"nx":28,"ny":28,"refTime":"2025-11-09T03:00:00:Z","depth":0,"parameterNumber":2,"parameterNumberName":"U-component_of_WINDS"},"data":[0,0,0,0,0,0,0,0,0,0,0,0,0,0,0,0,0,0,0,0,0,0,0,0,0,0,0,0,0,0,0,0,0,0,0,0,0,0,0,0,0,0,0,0,0,0,0,0,0,0,0,0,0,0,0,0,0,0,2.5185,2.5185,0,2.5188,2.5188,2.5188,2.516,2.516,2.5159,2.5158,2.516,2.5161,2.5161,0,0,0,0,0,0,0,0,0,0,0,0,0,2.5158,2.5159,2.5185,2.5185,2.5185,2.5188,2.5188,2.5188,2.516,2.516,2.5159,2.5158,2.516,2.5161,2.5161,0,0,0,0,0,0,0,0,0,0,0,0,0,2.5166,2.5159,2.5185,2.5172,2.5171,2.5188,2.5188,2.5188,2.5161,2.516,2.5158,2.5157,2.5159,2.516,2.5162,2.5191,0,0,2.5165,2.5165,0,0,0,0,0,0,0,0,2.5166,2.5167,2.5174,2.5173,2.5172,2.5173,2.5179,2.5189,2.5161,2.5165,2.5158,2.5157,2.5165,2.5166,2.5168,2.5191,2.5191,2.5165,2.5166,2.5166,2.5166,0,0,0,0,0,0,0,2.5165,2.5167,2.5186,2.5174,2.5173,2.5166,2.5166,2.518,2.5171,2.5164,2.5162,2.5163,2.5164,2.5167,2.5168,2.5191,2.5165,2.5166,2.5167,2.5167,2.5239,2.524,0,0,0,0,0,0,2.5166,2.5167,2.5186,2.5186,2.5166,2.5168,2.5168,2.5173,2.5171,2.5169,2.5164,2.5162,2.5166,2.5167,2.5168,2.5202,2.5166,2.5167,2.5168,2.5237,2.5239,2.524,0,0,0,0,0,0,2.5166,2.5168,2.5186,2.5176,2.5178,2.5169,2.5176,2.5174,2.5177,2.517,2.5169,2.5169,2.5165,2.5167,2.5186,2.5202,2.5168,2.5169,2.5236,2.5238,2.524,2.5271,0,0,0,0,0,0,2.5165,2.5168,2.5179,2.5176,2.5178,2.5203,2.5177,2.5175,2.5179,2.5176,2.5175,2.5173,2.5164,2.5184,2.5187,2.5203,2.517,2.5234,2.5237,2.5239,2.5269,2.5274,2.5278,0,0,0,0,0,2.5164,2.5187,2.518,2.5182,2.5191,2.5204,2.5205,2.5195,2.5181,2.5191,2.5188,2.5173,2.52,2.5186,2.5189,2.5206,2.5233,2.5236,2.5239,2.5266,2.5273,2.5278,0,0,0,0,0,0,2.5191,2.5187,2.5178,2.5201,2.5203,2.5199,2.5212,2.5202,2.5208,2.5205,2.5191,2.5191,2.5213,2.5211,2.5196,2.5235,2.5214,2.5218,2.5234,2.524,2.5245,2.5245,2.517,0,0,0,0,0,2.52,2.5211,2.5206,2.5227,2.5228,2.5221,2.5226,2.5218,2.5219,2.522,2.5217,2.522,2.5229,2.5235,2.5243,2.5269,2.5268,2.5282,2.5287,2.5291,2.5294,2.5309,2.5315,2.5249,2.5249,2.5249,0,0,2.5217,2.5216,2.5224,2.5232,2.5233,2.5245,2.5221,2.5234,2.5243,2.5222,2.524,2.5238,2.524,2.5263,2.5273,2.5263,2.5312,2.5295,2.5298,2.5298,2.5312,2.5318,2.5324,2.5251,2.5251,2.5251,0,0,2.5255,2.5256,2.5273,2.5275,2.5277,2.5272,2.5277,2.5275,2.5274,2.5292,2.5277,2.5287,2.5303,2.5305,2.5308,2.535,2.5337,2.5353,2.5378,2.5392,2.5397,2.5402,2.5417,2.5422,2.5356,2.5356,2.5356,0,2.5277,2.5294,2.5283,2.5298,2.5302,2.5285,2.5303,2.5306,2.531,2.5314,2.5302,2.5323,2.5323,2.5346,2.5357,2.536,2.5365,2.5352,2.5398,2.5402,2.5406,2.542,2.5426,2.5358,2.5358,2.5357,2.5357,0,2.532,2.5332,2.5346,2.5352,2.5358,2.5374,2.5367,2.5375,2.5367,2.5364,2.5383,2.5383,2.5391,2.5396,2.5388,2.5419,2.5413,2.54,2.5379,2.5414,2.5427,2.5432,2.536,2.536,2.5359,2.5359,0,0,2.5372,2.5374,2.5379,2.5382,2.5384,2.5394,2.541,2.5418,2.5425,2.543,2.5443,2.5458,2.5447,2.545,2.5443,2.5456,2.549,2.5442,2.5441,2.545,2.5524,2.5533,2.5539,2.5482,2.5483,2.5484,2.5524,0,2.5409,2.5436,2.5429,2.5456,2.5467,2.5453,2.5467,2.547,2.5468,2.5478,2.5476,2.5486,2.5471,2.5473,2.5485,2.5483,2.5504,2.548,2.5494,2.5494,2.5493,2.5546,2.5555,2.5592,2.5529,2.5529,2.553,0,2.5454,2.5462,2.549,2.5492,2.5497,2.551,2.5518,2.5527,2.5531,2.5529,2.5535,2.5525,2.5542,2.5522,2.5545,2.5529,2.5535,2.5535,2.5536,2.5536,2.5513,2.5546,2.5604,2.5609,2.5538,2.5537,2.5537,0,2.5489,2.5506,2.5526,2.5529,2.5532,2.5541,2.5543,2.5546,2.5552,2.556,2.5564,2.5573,2.5578,2.5585,2.5579,2.5565,2.5603,2.5583,2.5601,2.5601,2.5608,2.5608,2.5667,2.5614,2.5614,2.5614,2.5614,0,2.553,2.5548,2.5542,2.5554,2.5574,2.5566,2.5586,2.5586,2.559,2.5602,2.559,2.5602,2.5593,2.5605,2.56,2.562,2.5622,2.5621,2.5619,2.5621,2.5621,2.5623,2.562,2.5615,2.5615,2.5615,2.5614,0,2.5571,2.5568,2.5588,2.559,2.5591,2.5606,2.5608,2.5619,2.5617,2.5633,2.5636,2.5633,2.5646,2.5641,2.5654,2.5651,2.5676,2.5672,2.5675,2.5673,2.5692,2.569,2.5754,2.5762,2.5704,2.5705,2.5705,0,2.5597,2.5611,2.5615,2.5622,2.5625,2.5637,2.5644,2.5638,2.5645,2.5652,2.5663,2.5675,2.5684,2.5705,2.5704,2.5714,2.5709,2.5731,2.571,2.5713,2.5709,2.5708,2.5709,2.5734,2.5735,2.5736,2.5736,0,2.5643,2.5641,2.5651,2.5662,2.567,2.5678,2.5685,2.5692,2.5686,2.5695,2.5708,2.5716,2.573,2.5742,2.5752,2.5754,2.5744,2.5743,2.5748,2.5749,2.575,2.575,2.5685,2.5741,2.5741,2.574,2.574,2.574,2.5676,2.5688,2.5694,2.5706,2.5711,2.5718,2.5729,2.5729,2.574,2.5752,2.5748,2.5763,2.5769,2.5781,2.5785,2.5797,2.5788,2.5795,2.5797,2.5798,2.5801,2.575,2.5799,2.5798,2.5798,2.5798,2.5798,0,2.5721,2.5725,2.5736,2.5746,2.5757,2.5748,2.5756,2.5765,2.5778,2.5785,2.5794,2.581,2.5823,2.5824,2.5835,2.5845,2.5841,2.5848,2.5846,2.5847,2.5808,2.5802,2.5851,2.5851,2.5851,2.5851,2.5851,2.5851,2.5745,2.5766,2.5765,2.5788,2.5791,2.5806,2.5811,2.5818,2.5823,2.5842,2.5852,2.5853,2.5857,2.587,2.5881,2.5881,2.5885,2.5894,2.5892,2.5855,2.585,2.5845,2.5839,2.5895,2.5895,2.5931,2.5931,2.5931]},{"header":{"parameterUnit":"m.s-1","parameterCategory":1,"la1":30.2991,"la2":30.254,"lo1":-89.0895,"lo2":-89.0444,"dy":0.0017,"dx":0.0017,"nx":28,"ny":28,"refTime":"2025-11-09T03:00:00:Z","depth":0,"parameterNumber":3,"parameterNumberName":"V-component_of_WINDS"},"data":[0,0,0,0,0,0,0,0,0,0,0,0,0,0,0,0,0,0,0,0,0,0,0,0,0,0,0,0,0,0,0,0,0,0,0,0,0,0,0,0,0,0,0,0,0,0,0,0,0,0,0,0,0,0,0,0,0,0,-8.62,-8.6202,0,-8.6389,-8.6391,-8.6393,-8.6292,-8.6286,-8.6281,-8.6277,-8.6463,-8.6472,-8.6482,0,0,0,0,0,0,0,0,0,0,0,0,0,-8.5743,-8.5752,-8.62,-8.6202,-8.6205,-8.6389,-8.6391,-8.6394,-8.6293,-8.6286,-8.628,-8.6274,-8.6459,-8.6471,-8.6483,0,0,0,0,0,0,0,0,0,0,0,0,0,-8.5938,-8.5755,-8.6199,-8.6176,-8.6176,-8.6388,-8.6391,-8.6394,-8.6294,-8.6286,-8.6278,-8.6271,-8.6456,-8.647,-8.6484,-8.6727,0,0,-8.6529,-8.6535,0,0,0,0,0,0,0,0,-8.5927,-8.5955,-8.6177,-8.6178,-8.6178,-8.6309,-8.6298,-8.6506,-8.6296,-8.6249,-8.6276,-8.6268,-8.6417,-8.6434,-8.6486,-8.6736,-8.6744,-8.653,-8.6539,-8.6545,-8.6549,0,0,0,0,0,0,0,-8.5914,-8.5946,-8.6274,-8.6181,-8.6181,-8.6154,-8.6173,-8.6337,-8.6373,-8.6252,-8.6246,-8.627,-8.6416,-8.6473,-8.649,-8.6747,-8.653,-8.6542,-8.6551,-8.6557,-8.7204,-8.7212,0,0,0,0,0,0,-8.5903,-8.5935,-8.6268,-8.628,-8.6032,-8.6169,-8.619,-8.6275,-8.6371,-8.6379,-8.6276,-8.6264,-8.6452,-8.6473,-8.6496,-8.6787,-8.6545,-8.6559,-8.6567,-8.7196,-8.7206,-8.7215,0,0,0,0,0,0,-8.5893,-8.5933,-8.6261,-8.6106,-8.6146,-8.6185,-8.6281,-8.6283,-8.6339,-8.6389,-8.6394,-8.6328,-8.6446,-8.6476,-8.6671,-8.6792,-8.6565,-8.6578,-8.7186,-8.7199,-8.7211,-8.7372,0,0,0,0,0,0,-8.588,-8.593,-8.6025,-8.6109,-8.6154,-8.6435,-8.6288,-8.6292,-8.6366,-8.6352,-8.6439,-8.6446,-8.6443,-8.665,-8.6686,-8.6808,-8.659,-8.7175,-8.7192,-8.7207,-8.7356,-8.7388,-8.7416,0,0,0,0,0,-8.5865,-8.6061,-8.603,-8.6071,-8.6274,-8.6442,-8.6468,-8.6462,-8.6376,-8.647,-8.6502,-8.6444,-8.6773,-8.6671,-8.671,-8.6839,-8.7168,-8.7187,-8.7206,-8.7342,-8.7382,-8.7416,0,0,0,0,0,0,-8.5988,-8.6072,-8.6038,-8.6269,-8.635,-8.6425,-8.6544,-8.6504,-8.6609,-8.6592,-8.6577,-8.6598,-8.6801,-8.6839,-8.6723,-8.7079,-8.6957,-8.6984,-8.7047,-8.7085,-8.7115,-8.7101,-8.6602,0,0,0,0,0,-8.6042,-8.6175,-8.6239,-8.6436,-8.6479,-8.6505,-8.6578,-8.6566,-8.6648,-8.6681,-8.6727,-8.6807,-8.6929,-8.7009,-8.7123,-8.736,-8.7377,-8.7468,-8.7499,-8.7523,-8.7547,-8.7675,-8.7716,-8.7278,-8.7278,-8.7277,0,0,-8.6155,-8.6217,-8.6301,-8.6463,-8.6524,-8.6659,-8.6534,-8.6682,-8.6782,-8.6703,-8.6891,-8.6928,-8.7015,-8.7233,-8.7331,-8.7271,-8.7672,-8.7547,-8.7567,-8.7578,-8.7699,-8.774,-8.7777,-8.7291,-8.7288,-8.7286,0,0,-8.643,-8.6491,-8.6662,-8.6726,-8.6821,-8.6838,-8.6879,-8.6961,-8.6983,-8.7172,-8.7116,-8.7232,-8.7442,-8.7507,-8.7568,-8.7868,-8.7818,-8.7905,-8.8063,-8.8188,-8.8223,-8.8253,-8.836,-8.8399,-8.7929,-8.793,-8.793,0,-8.6557,-8.6762,-8.6753,-8.6907,-8.6979,-8.6917,-8.7088,-8.715,-8.7277,-8.7327,-8.7259,-8.7521,-8.7576,-8.7808,-8.7881,-8.7932,-8.7977,-8.7895,-8.8219,-8.8249,-8.8278,-8.8379,-8.842,-8.794,-8.7938,-8.7937,-8.7937,0,-8.6914,-8.7056,-8.7182,-8.731,-8.7395,-8.7557,-8.7572,-8.7659,-8.764,-8.7663,-8.7855,-8.7919,-8.8045,-8.8099,-8.8081,-8.8329,-8.8289,-8.822,-8.8097,-8.833,-8.8425,-8.8464,-8.7954,-8.795,-8.7947,-8.7945,0,0,-8.7271,-8.7393,-8.744,-8.7497,-8.7598,-8.7706,-8.7864,-8.7991,-8.8066,-8.8155,-8.8286,-8.8466,-8.8403,-8.8472,-8.846,-8.857,-8.8803,-8.8487,-8.8489,-8.8544,-8.908,-8.9131,-8.9177,-8.8771,-8.8778,-8.8784,-8.9073,0,-8.7553,-8.7833,-8.7831,-8.8089,-8.8219,-8.8162,-8.8299,-8.8375,-8.84,-8.8512,-8.8538,-8.8666,-8.8574,-8.8615,-8.8721,-8.8753,-8.8911,-8.8732,-8.8891,-8.8897,-8.8872,-8.9227,-8.9281,-8.9551,-8.911,-8.9116,-8.9121,0,-8.792,-8.8025,-8.8297,-8.8379,-8.8433,-8.8558,-8.8673,-8.8782,-8.8866,-8.8876,-8.8954,-8.8925,-8.9083,-8.8956,-8.9173,-8.9051,-8.9116,-8.9141,-8.9151,-8.9166,-8.9023,-8.9251,-8.9636,-8.9677,-8.9179,-8.9175,-8.917,0,-8.8154,-8.8362,-8.8552,-8.8603,-8.8703,-8.8792,-8.8837,-8.8914,-8.899,-8.909,-8.9138,-8.9255,-8.9318,-8.9408,-8.941,-8.9317,-8.9629,-8.9502,-8.9641,-8.9641,-8.9709,-8.9705,-9.0111,-8.9751,-8.9751,-8.975,-8.9749,0,-8.8469,-8.8638,-8.8659,-8.8776,-8.8963,-8.8957,-8.9141,-8.9177,-8.9246,-8.9367,-8.9323,-8.9437,-8.9433,-8.9548,-8.9551,-8.973,-8.9759,-8.977,-8.9769,-8.9775,-8.9773,-8.9817,-8.9798,-8.976,-8.9758,-8.9756,-8.9754,0,-8.8763,-8.8784,-8.8987,-8.9066,-8.909,-8.9224,-8.929,-8.94,-8.9421,-8.9575,-8.9611,-8.9644,-8.9777,-8.9789,-8.9942,-8.9944,-9.0161,-9.0139,-9.0134,-9.013,-9.0269,-9.0256,-9.0717,-9.0777,-9.0378,-9.0382,-9.0385,0,-8.8963,-8.9092,-8.9185,-8.9265,-8.9316,-8.9444,-8.9523,-8.9521,-8.9604,-8.9709,-8.9806,-8.9936,-9.004,-9.0255,-9.0291,-9.0408,-9.0388,-9.0542,-9.0405,-9.0407,-9.0391,-9.0383,-9.0396,-9.0568,-9.0573,-9.0576,-9.0579,0,-8.9316,-8.932,-8.9436,-8.9557,-8.9652,-8.9746,-8.9833,-8.99,-8.9909,-9.0004,-9.0141,-9.0222,-9.038,-9.0509,-9.0624,-9.0667,-9.0625,-9.0622,-9.066,-9.0668,-9.066,-9.0666,-9.0206,-9.0611,-9.0608,-9.0606,-9.0604,-9.0603,-8.9569,-8.9681,-8.9765,-8.9895,-8.9962,-9.0045,-9.0153,-9.0188,-9.0304,-9.0435,-9.0426,-9.0578,-9.0656,-9.0807,-9.086,-9.0976,-9.0924,-9.098,-9.0994,-9.1008,-9.1023,-9.0642,-9.0997,-9.0996,-9.0995,-9.0994,-9.0994,0,-8.992,-8.9971,-9.0092,-9.0217,-9.032,-9.0273,-9.0368,-9.0456,-9.0591,-9.067,-9.0773,-9.0931,-9.1056,-9.1102,-9.1223,-9.1307,-9.1291,-9.1339,-9.1333,-9.1344,-9.1062,-9.1017,-9.1351,-9.1351,-9.1351,-9.135,-9.135,-9.135,-9.0115,-9.0302,-9.0316,-9.0535,-9.0584,-9.0735,-9.0793,-9.0869,-9.0932,-9.1111,-9.1216,-9.1246,-9.1311,-9.1436,-9.1548,-9.1558,-9.1604,-9.1661,-9.1663,-9.1399,-9.1363,-9.1329,-9.1287,-9.1672,-9.1672,-9.1935,-9.1937,-9.1939]}]]